Weather in Kizilot

Turkey     36°43′07″N   31°34′07″E
temp.,
°C
wind,
m/s
gust,
m/s
humid.,
%
clouds,
%
prec.,
mm/h
press.,
hPa
HPBL,
m
22 may, sun
sun2200:00+20nnw11592 0.0 101111
03:00+20nnw33510 0.0 100852
06:00+20ese23484 0.0 100724
09:00+24sse0147100 0.0 1007194
12:00+25s44467 0.0 1006504
15:00+23se456092 0.1 1007666
18:00+22sw3365100 0.4 1006639
21:00+20ese3377100 0.9 1007174
23 may, mon
mon2300:00+19nw33785 0.1 100699
03:00+19nnw346232 0.1 1005126
06:00+18ene125847 0.0 100586
09:00+23wnw23450 0.0 1006380
12:00+27w67380 0.0 10051541
15:00+28w99403 0.0 10041323
18:00+25wsw810522 0.0 1004293
21:00+22ese33650 0.0 100641
24 may, tue
tue2400:00+21nne11633 0.0 100711
03:00+21n33490 0.0 100652
06:00+21nne33474 0.0 100747
09:00+25ese11393 0.0 1008282
12:00+25sse65494 0.0 1009464
15:00+25sse66581 0.0 1009533
18:00+24se33635 0.0 1010305
21:00+22ese22675 0.0 101115
25 may, wed
wed2500:00+21ese01640 0.0 101111
03:00+20e11640 0.0 101211
06:00+20ene12530 0.0 101311
09:00+24ssw11410 0.0 1014218
12:00+25s44520 0.0 1015524
15:00+25s43570 0.0 1015501
18:00+24ssw21612 0.0 1014341
21:00+21nw11730 0.0 101511
26 may, thu
thu2600:00+21nw11715 0.0 101511
03:00+21nw22680 0.0 101514
06:00+21nnw22600 0.0 101425
09:00+26w11420 0.0 1014235
12:00+26s55480 0.0 1015515
15:00+26sse55563 0.0 1014386
18:00+25s226210 0.0 1014187
21:00+23ene33641 0.0 101419